Погода в Лагани

Погода в Лагани : погода сейчас, прогноз погоды и архив. Всё, что Вы хотите узнать о погоде в Лагани!

Поиск расширенной информации на нашем сайте:

Другие новости

Новости СМИ2

Главная страница сайта

Новости сайта

02.10.2013

Напоминаем, что на нашем новом сайте вы можете получить высокодетализированные прогнозы погоды по пунктам России, СНГ и мира (включающие важные для авиации метеовеличины, такие как направление и скорость ветра, видимость, явления погоды, количество и форма облачности, нижняя и верхняя граница облачности), а также ознакомиться с разнообразными материалами по авиационной метеорологии и подборкой полезных ссылок на эту тему.

Сайт Метеоцентр.Азия посвящён разработке технологий оптимизации авиаметеорологического обслуживания, включая проектирование и перспективное создание нескольких автоматизированных авиаметеорологических систем:
- система выпуска высокодетальных прогностических карт явлений погоды для нижнего воздушного пространства по России и ближнему зарубежью;
- система верификации прогнозов TAF (выпускаемых синоптиками официальных АМСГ РФ и ближнего зарубежья) и AUTOTAF (выпускаемых сайтом Метеоцентр.Азия) - выявление ошибок, онлайн-сопоставление с фактической погодой METAR, автоматическое внесение коррективов в прогнозы при резком отклонении фактической погоды от прогноза, подсчёт оправдываемости прогнозов по элементам и в целом;
- система обработки, анализа и отображения авиаметеорологической информации для применения провайдерами метеорологической информации.

Рекомендуем: Описание серия 1.435.9-17 тут.

Погода в Лагани - сегодня

Время (UTC), дата Ветер
(°,м/с) 
Видим.   Явления Облачность Т
(°С)
Тd
(°С)
f(%) Тe
(°С)
Pmin
(гПа)
dP
(гПа)
Po
(мм)
O2
(г/м3)
Тmin Tmax R s Состояние
почвы
00 22.03.17 280 (З) 2000 м  слаб. ливневой снег{дождь}  10/8 300 м кучево-дожд., средняя 
[Cb cap|As op]
+0.1 -0.3 97 -2  1009.5  0.5  759  306           
03 22.03.17 270 (З) 1000 м  ливневой снег [диам. отлож. мокр. снега 2 мм]  10/8 300 м кучево-дожд., средняя 
[Cb cap|As op]
-0.2 -0.4 99 -3  1010.5  760  306  -0.2    10     
06 22.03.17 250 (З) 2000 м  слаб. ливневой снег [диам. отлож. мокр. снега 17 мм]  10/8 300 м кучево-дожд., средняя 
[Cb cap|As op]
+0.3 +0.1 99 -3  1011.5  761  306  -0.2         
09 22.03.17 240 (ЮЗ) 1000 м  ливневой снег  10/9 300 м кучево-дожд., средняя 
[Cb cap|As op]
+0.2 -0.1 98 -3  1012.3  0.8  761  307           
12 22.03.17 250 (З) 2000 м  слаб. ливневой снег  10/8 300 м кучево-дожд., средняя 
[Cb cap|Ac As]
+0.3 -0 98 -2  1013.6  1.3  762  307           
15 22.03.17 240 (ЮЗ) 2000 м  слаб. ливневой снег  10/8 300 м кучево-дожд., средняя 
[Cb cap|Ac As]
+0 -0.2 99 -2  1015.6  764  308    +0.7     
18 22.03.17 250 (З) 4000 м  в посл. час ливневой снег  10/6 300 м кучево-дожд., средняя 
[Cb cap|Ac As]
+0.2 -0.1 98 -2  1017.6  765  308           
21 22.03.17 230 (ЮЗ) 4000 м  дымка  10/8 300 м средняя 
[St|Ac As]
+0.1 -0.2 98 -2  1018.5  0.9  766  309           
00 23.03.17 210 (ЮЗ) 4000 м  дымка  10/10 200 м 
[St]
+0 -0.3 98 +1  1019.3  0.8  767  309           
03 23.03.17 280 (З) 0200 м  туман  н/о 
+0.1 +0.1 100 +1  1020.3  767  309  +0    0.3  мокрый или
старый снег
50-90% 
06 23.03.17 280 (З) 10 км    10/10 300 м 
[St]
+1.2 +0.5 95 +1  1021.8  1.5  768  308           
09 23.03.17 270 (З) 10 км    10/10 300 м 
[St]
+2.3 +0.4 87 +3  1022.7  0.9  769  307           
12 23.03.17 270 (З) 10 км    10/6 600 м кучево-дожд., средняя 
[Cb cap|Ac As]
+3.2 +0.7 84 +3  1023.3  0.6  770  306           
15 23.03.17 240 (ЮЗ) 10 км    10/5 600 м кучево-дожд., средняя 
[Cb cap|Ac As]
+3.1 +1.3 88 +4  1024.5  1.2  770  307    +3.2       
18 23.03.17 270 (З) 10 км    10/10 200 м 
[St]
+2.9 +1.7 92 +4  1025.8  1.3  771  307           
21 23.03.17 220 (ЮЗ) 4000 м  дымка  10/10 200 м 
[St]
+2.7 +2 95 +3  1026.1  0.3  772  308           
00 24.03.17 260 (З) 4000 м  дымка  10/10 200 м 
[St]
+2.5 +1.5 93 +2  1026.1  772  308           
03 24.03.17 290 (З) 10 км    10/10 200 м 
[St]
+2.4 +1.3 92 +2  1027.1  772  308  +1.9         
06 24.03.17 260 (З) 10 км    10/10 300 м 
[St]
+3.6 +1.8 88 +4  1028  0.9  773  307           
09 24.03.17 270 (З) 10 км    10/8 300 м кучево-дожд., средняя 
[Cb cap|As op]
+5.6 +2.8 82 +5  1027.6  -0.4  773  305           
12 24.03.17 300 (СЗ) 20000 м    10/8 300 м кучево-дожд., средняя 
[Cb cap|Ac As]
+7.8 +3.6 75 +9  1026.4  -1.3  772  302           
15 24.03.17 200 (Ю) 20000 м    8/8 300 м 
[Sc]
+7.5 +3.9 78 +7  1025.8  -0.6  771  302    +9.5       
18 24.03.17 150 (ЮВ) 10 км    4/4 300 м 
[Sc]
+4.6 +2.9 89 +4  1026  0.2  772  305           
21 24.03.17 150 (ЮВ) 10 км    10/10 300 м 
[Sc]
+5 +3.3 89 +4  1024.2  -1.8  770  304           
00 25.03.17 140 (ЮВ) 10 км    10/10 300 м 
[Sc]
+5 +3.3 89 +4  1024.2  -1.5  769  304           
Время (UTC), дата Ветер
(°,м/с) 
Видим.   Явления Облачность Т
(°С)
Тd
(°С)
f(%) Тe
(°С)
Pmin
(гПа)
dP
(гПа)
Po
(мм)
O2
(г/м3)
Тmin Tmax R s Состояние
почвы

Для получения пояснительной информации подведите курсор к названию столбца.

ПОГОДА в Лагани - архив

Всё, что Вы хотите узнать о погоде в Лагани - удобно и подробно!

Выберите нужную дату (начиная с 1 января 2015* года) и нажмите кнопку "Найти".
Будут отображены архивные сводки погоды по пункту Лагань, начиная с указанной даты.


Отображать данные в формате CSV (для использования в таблицах Excel)


Внимание! Наш архив погоды предназначен исключительно для личного некоммерческого использования в познавательных целях. Если Вам необходимы официальные справки о состоянии погоды (для производственных, юридических, коммерческих и т.п. целей), обращайтесь в органы Росгидромета.

*Примечание: данная дата относится к архиву по метеостанциям СССР (Россия, СНГ, Балтия).
Архив по метеостанциям Зарубежной Европы и Азии (кроме Китая) хранится 10 дней, по другим регионам земного шара (Китай, Африка, Америка, Австралия, Океания) - 1 день.

Лагань - район местоположения метеостанции


Название, широта, долгота, высота метеостанции:
Лагань 45.4°ш. 47.3°д. -24 м над ур. моря [Российская Федерация]

Дополнительная информация

В oтличие oт бoльшинства пoгoдных сайтoв мы публикуем пoдрoбную метеoинфoрмацию в детальнoм прoфессиoнальнoм фoрмате.

Характеристики температуры и влажнoсти вoздуха измеряются на высoте 2 м в тени вдали oт зданий и деревьев.
Скoрoсть ветра измеряется на высoте 10 м (на урoвне рoста челoвека скoрoсть ветра ниже в 1.5-2 раза). Если метеoстанция нахoдится в гoрoде или в лесу, тo скoрoсть ветра занижена на 2-4 м/с пo сравнению с oткрытым местoм. Скoрoсть ветра над акватoриями крупных рек и oзёр, а также на вершинах хoлмoв на 2-5 м/с выше, чем в oбычных услoвиях.
Атмoсфернoе давление в разных тoчках местнoсти мoжет значительнo oтличаться oт давления на метеoстанции, в зависимoсти oт услoвий рельефа (при пoдъёме на 10 м давление пoнижается примернo на 1 мм рт.ст.).